This is the latest recevied weather packets stored in our database for station/object XE2OR-10. If no packets are shown the sender has not sent any weather packets the latest 10 day(s).
| Time | Temp. | Humidity | Pressure | Rain* | Wind** | Luminosity | Snow |
|---|---|---|---|---|---|---|---|
| 1778008129 | 32.78° C | 67% | 1011.3 hPa | 0 mm | - | 792 W/m² | - |
| 1778007829 | 32.22° C | 68% | 1011.1 hPa | 0 mm | - | 778 W/m² | - |
| 1778007529 | 32.78° C | 67% | 1011.6 hPa | 0 mm | - | 808 W/m² | - |
| 1778007233 | 32.78° C | 67% | 1011.3 hPa | 0 mm | - | 832 W/m² | - |
| 1778006929 | 31.67° C | 68% | 1011.6 hPa | 0 mm | - | 783 W/m² | - |
| 1778006633 | 32.22° C | 68% | 1011.5 hPa | 0 mm | - | 753 W/m² | - |
| 1778006329 | 32.22° C | 68% | 1011.8 hPa | 0 mm | - | 770 W/m² | - |
| 1778006029 | 31.67° C | 68% | 1011.6 hPa | 0 mm | - | 767 W/m² | - |
| 1778005729 | 31.11° C | 69% | 1011.7 hPa | 0 mm | - | 828 W/m² | - |
| 1778005433 | 32.22° C | 68% | 1011.8 hPa | 0 mm | - | 826 W/m² | - |
| 1778005129 | 31.67° C | 71% | 1011.9 hPa | 0 mm | - | 804 W/m² | - |
| 1778004832 | 31.11° C | 70% | 1012 hPa | 0 mm | - | 783 W/m² | - |
| 1778004529 | 31.67° C | 70% | 1012.1 hPa | 0 mm | - | 607 W/m² | - |
| 1778004229 | 31.67° C | 71% | 1012.1 hPa | 0 mm | - | 758 W/m² | - |
| 1778003929 | 31.11° C | 72% | 1012.1 hPa | 0 mm | - | 772 W/m² | - |
| 1778003632 | 30° C | 73% | 1012.2 hPa | 0 mm | - | 777 W/m² | - |
| 1778003329 | 30.56° C | 72% | 1012.2 hPa | 0 mm | - | 749 W/m² | - |
| 1778003032 | 31.11° C | 74% | 1012.5 hPa | 0 mm | - | 133 W/m² | - |
| 1778002729 | 30.56° C | 72% | 1012.6 hPa | 0 mm | - | 123 W/m² | - |
| 1778002429 | 30.56° C | 73% | 1012.4 hPa | 0 mm | - | 249 W/m² | - |
| 1778002129 | 30° C | 73% | 1012.7 hPa | 0 mm | - | 526 W/m² | - |
| 1778001832 | 30° C | 74% | 1012.8 hPa | 0 mm | - | 690 W/m² | - |
| 1778001529 | 29.44° C | 74% | 1012.8 hPa | 0 mm | - | 722 W/m² | - |
| 1778001233 | 29.44° C | 75% | 1012.7 hPa | 0 mm | - | 624 W/m² | - |
| 1778000929 | 29.44° C | 76% | 1012.8 hPa | 0 mm | - | 701 W/m² | - |
* Rain latest hour (hover to see other rain measurements)
** Current wind speed in m/s (hover to see current wind gust speed)